TITAN 3C TRANSTAGE DEB, 1668

Orbit data source: Space-Track

TITAN 3C TRANSTAGE DEB, 1668 is space debris in LEO originally from a launch on Fri, 15 Oct 1965 UTC launched from the Air Force Eastern Test Range (AFETR). Debris objects in space refer to the collection of defunct objects orbiting the Earth. Examples of debris include non-operational satellites, rocket bodies, and fragments generated from explosions, collisions, or faulty payload assembly.

Loading next visibility...
Identifier
1668, 1965-082AF
Orbit
LEO
Last TLE update
1 day ago
Origin
Manufacturer
Unknown
Mission
Spacecraft
Bus & Motor
Unknown
Mass
370 kg wet, 370 kg dry
Launch date (UTC)
1965-10-15 (60 years ago)
Launch vehicle
Unknown
Launch site
Air Force Eastern Test Range (AFETR)
Object type
Payload
Rocket body
Debris
Shape & HBR
Unknown
Radar Cross Section
2.800 m², Large (>1 m²)

Expand to show TLE details & history

TLE from 1 day ago
0 TITAN 3C TRANSTAGE DEB
1 01668U 65082AF  25185.25133061  .00001331  00000-0  16209-3 0  9993
2 01668  32.0667 139.7598 0014591 345.8377  14.1862 14.81116421166695
Epoch: 2025-07-04T06:01Z
TLE epoch observation values (Epoch: 2025-07-04T06:01:54.964Z)
Latitude
-0.00002°
Longitude
126.77434°
Altitude
614.53 km
Speed
7.559 km/s
True Right ascension
09h 19m 02s
True Declination
0° 00' 00"
Sunlit
Object was in daylight at epoch
Visualization orbit readout
Latitude
-16.92356°
Longitude
-33.21369°
Altitude
636.627 km
Speed
7.537 km/s
Apparent Right ascension
20h 19m 25s
Apparent Declination
-35° 31' 53"
Sunlit
Object is in full shadow
Visualization observer readout
Local Sidereal Time
04:52:47
Azimuth
259.197° W
Elevation
-49.473°
Doppler factor
1
Orbital elements
Apogee altitude
639.662 km
Perigee altitude
619.213 km
Semi-major axis
7,007.575 km
Eccentricity
0.00146
Inclination
32.0667°
RAAN
139.7598°
Arg. of periapsis
345.8377°
True anomaly
Unknown
Mean anomaly
14.1862°
Eccentric anomaly
Unknown
Mean motion
3.69991 °/min
Orbital period
97.3 mins
BSTAR
0.00016209
Loading maneuver chart data...
Loading SW <> Apogee altitude chart data...

TITAN 3C TRANSTAGE DEB Visibility forecast

Observer location: undefined°, undefined°

Span
Click to sort rows by Start time (UTC) header in descending order
Start Az.
Max El. time (UTC)
Max El. Az.
Max El.
End time (UTC)
End Az.
6 mins2025-07-06 00:19:29.917Z203.498° SW2025-07-06 00:22:29.917Z161.967° S17.153°2025-07-06 00:25:29.917Z119.83° SE
6 mins2025-07-06 02:02:29.917Z221.912° SW2025-07-06 02:04:29.917Z185.437° SSW25.892°2025-07-06 02:08:29.917Z117.763° SE
5 mins2025-07-06 03:45:29.917Z226.328° WSW2025-07-06 03:47:29.917Z187.009° SSW23.941°2025-07-06 03:50:29.917Z139.043° SSE
|